CZ-6A DEB, 56276

Orbit data source: Space-Track

CZ-6A DEB, 56276 is space debris in SSO originally from a launch on Fri, 11 Nov 2022 UTC launched from the Taiyaun Space Center, China (TSC). Debris objects in space refer to the collection of defunct objects orbiting the Earth. Examples of debris include non-operational satellites, rocket bodies, and fragments generated from explosions, collisions, or faulty payload assembly.

Loading next visibility...
Identifier
56276, 2022-151ACU
Orbit
SSO
Country
Flag of CNCN / PRC
Related business
Manufacturer
SAST
Mission
Spacecraft
Bus & Motor
Unknown
Mass
Unknown
Launch date (UTC)
2022-11-11 (3 years ago)
Launch vehicle
Unknown
Launch site
Taiyaun Space Center, China (TSC)
Object type
Payload
Rocket body
Debris
Shape & HBR
Unknown shape, 0.1 m
Radar Cross Section
Small (<0.1 m²)

Expand to show TLE details & history
Last TLE update: 1 day ago

TLE from 1 day ago
0 CZ-6A DEB
1 56276U 22151ACU 25348.96670482  .00000999  00000-0  48585-3 0  9991
2 56276  98.7857   1.0709 0009875 120.4858 239.7295 14.20497790142069
Epoch: 2025-12-14T23:12Z
TLE epoch observation values (Epoch: 2025-12-14T23:12:03.296Z)
Latitude
-0.00001°
Longitude
-70.81487°
Altitude
830.173 km
Speed
7.436 km/s
True Right ascension
00h 04m 17s
True Declination
0° 00' 00"
Sunlit
Object was in daylight at epoch
Visualization orbit readout
Latitude
Unknown
Longitude
Unknown
Altitude
Unknown
Speed
Unknown
Apparent Right ascension
Unknown
Apparent Declination
Unknown
Sunlit
N/A
Visualization observer readout
Local Sidereal Time
22:49:11
Azimuth
Unknown
Elevation
Unknown
Doppler factor
Unknown
Orbital elements
Apogee altitude
827.94 km
Perigee altitude
813.722 km
Semi-major axis
7,198.968 km
Eccentricity
0.00099
Inclination
98.7857°
RAAN
1.0709°
Arg. of periapsis
120.4858°
True anomaly
239.63183°
Mean anomaly
239.7295°
Eccentric anomaly
239.68066°
Mean motion
3.55335 °/min
Orbital period
101.31 mins
BSTAR
0.00048585
Loading maneuver chart data...
Computing Atmospheric mass density...

Documentation

Showing up to 5 results
|